Regional Weather Roundup
Issued by NWS

Home | Current Version | Previous Version | Text Only | Print | Product List | Glossary Off
Versions: 1 2 3 4 5 6 7 8 9 10 11 12 13 14 15 16 17 18 19 20 21 22 23 24 25 26 27 28 29 30 31 32 33 34 35 36 37 38 39 40 41 42 43 44 45 46 47 48 49 50

210
ASUS45 KCYS 230310
RWRWY

WYOMING REGIONAL WEATHER ROUNDUP
NATIONAL WEATHER SERVICE CHEYENNE WY
900 PM MDT SUN APR 22 2018

NOTE:  "FAIR" INDICATES FEW OR NO CLOUDS BELOW 12,000 FEET
WITH NO SIGNIFICANT WEATHER AND/OR OBSTRUCTIONS TO VISIBILITY.

WYZ001-230400-
YELLOWSTONE NATIONAL PARK

CITY           SKY/WX    TMP DP  RH WIND       PRES   REMARKS
LK YELLOWSTONE   N/A     33  27  78 CALM      30.13R
W YELLOWSTONE  NOT AVBL

$$
WYZ002>013-054>058-071-098>099-230400-
NORTHERN WYOMING

CITY           SKY/WX    TMP DP  RH WIND       PRES   REMARKS
JACKSON        MOCLDY    52  30  43 N3        30.05R
CODY           FAIR      54  30  40 NW6       30.04R
GREYBULL       FAIR      63  35  35 NW10      29.94R
WORLAND        FAIR      54  34  46 NE5       29.93S
SHERIDAN       FAIR      58  38  47 CALM      30.05R
BUFFALO        FAIR      55  38  52 N7        30.09R
GILLETTE       FAIR      54  39  57 NE9       30.05R
HULETT         FAIR      54  37  54 E8        30.09R
NEWCASTLE      FAIR      52  34  50 SE15      30.09R

$$
WYZ014>020-022>026-101>103-230400-
CENTRAL WYOMING

CITY           SKY/WX    TMP DP  RH WIND       PRES   REMARKS
BIG PINEY      FAIR      50  20  30 E6        30.07S
PINEDALE       FAIR      45  27  49 W3        30.08S
DUBOIS         FAIR      46  21  36 SW14      30.07S
LANDER         FAIR      57  29  34 SW14      29.97R
RIVERTON       FAIR      59  23  25 E7        29.98R
CASPER         FAIR      55  34  45 E14       30.01S
DOUGLAS        FAIR      51  35  54 SE12      30.07R

$$
WYZ021-027>030-104>119-230400-
SOUTHERN WYOMING

CITY           SKY/WX    TMP DP  RH WIND       PRES   REMARKS
EVANSTON       FAIR      54  23  30 W8        30.08R
KEMMERER       FAIR      50  25  37 W6        30.08S
FORT BRIDGER   FAIR      55  19  25 W7        30.10R
ROCK SPRINGS   FAIR      60  20  21 CALM      30.05S
DIXON          FAIR      45  33  64 NE3       30.10S
RAWLINS          N/A    N/A N/A N/A MISG      30.07R
SARATOGA       FAIR      50  23  34 SW10      30.10R
LARAMIE        FAIR      43  35  73 SE10      30.13R
CHEYENNE       FAIR      49  37  63 S15       30.14R
TORRINGTON     FAIR      51  38  60 SE12      30.08R
PINE BLUFFS    FAIR      45  36  70 MISG      30.13R

$$




USA.gov is the U.S. government's official web portal to all federal, state and local government web resources and services.